Location: Aalsum
(53.3404°N, 6.0062°E)
Time: 09:48:27
(UTC+00:00)

Cosmos 1607 - Pass Details

Date: 28 January 2023
Orbit: 921 x 981 km, 65.0° (Epoch: 19 March)

Event Time Altitude Azimuth Distance (km) Brightness Sun altitude
Rises 18:04:32 0° 203° (SSW) 3,554 7.4 -16.7°
Reaches altitude 10° 18:07:05 10° 199° (SSW) 2,617 6.6 -17.1°
Maximum altitude 18:12:59 55° 124° (SE) 1,114 4.0 -18.0°
Enters shadow 18:16:09 28° 60° (ENE) 1,698 4.8 -18.5°
